Location: Winthrop
(48.4780°N, 120.1850°W)
Time: 23:05:47
(UTC-07:00)

A-11 Canister half - Pass Details

Date: 09 June 2023
Orbit: 1515 x 1684 km, 47.2° (Epoch: 29 September)

Event Time Altitude Azimuth Distance (km) Brightness Sun altitude
Exits shadow 03:14:40 - 247° (WSW) 4,250 10.8 -12.5°
Reaches altitude 10° 03:15:55 10° 247° (WSW) 3,850 10.6 -12.4°
Maximum altitude 03:25:41 75° 164° (SSE) 1,628 9.0 -11.5°
Drops below altitude 10° 03:35:05 10° 81° (E) 3,725 11.7 -10.6°
Sets 03:38:06 0° 80° (E) 4,693 12.3 -10.3°
